[[{"header":{"parameterUnit":"m.s-1","parameterCategory":1,"la1":30.2991,"la2":30.254,"lo1":-89.0895,"lo2":-89.0444,"dy":0.0017,"dx":0.0017,"nx":28,"ny":28,"refTime":"2023-11-01T03:00:00:Z","depth":0,"parameterNumber":2,"parameterNumberName":"U-component_of_WINDS"},"data":[0,0,0,0,0,0,0,0,0,0,0,0,0,0,0,0,0,0,0,0,0,0,0,0,0,0,0,0,0,0,0,0,0,0,0,0,0,0,0,0,0,0,0,0,0,0,0,0,0,0,0,0,0,0,0,0,0,0,-5.7015,-5.7017,0,-5.7132,-5.7133,-5.7134,-5.7051,-5.7048,-5.7044,-5.7041,-5.7161,-5.7167,-5.7174,0,0,0,0,0,0,0,0,0,0,0,0,0,-5.6722,-5.6728,-5.7015,-5.7017,-5.7018,-5.7132,-5.7133,-5.7135,-5.7052,-5.7048,-5.7043,-5.7039,-5.7159,-5.7167,-5.7175,0,0,0,0,0,0,0,0,0,0,0,0,0,-5.6845,-5.673,-5.7015,-5.6991,-5.699,-5.7131,-5.7133,-5.7135,-5.7053,-5.7047,-5.7042,-5.7037,-5.7156,-5.7166,-5.7176,-5.7348,0,0,-5.7206,-5.721,0,0,0,0,0,0,0,0,-5.6839,-5.6856,-5.6993,-5.6993,-5.6992,-5.7071,-5.7074,-5.7207,-5.7054,-5.7029,-5.704,-5.7034,-5.7136,-5.7147,-5.7181,-5.7354,-5.7359,-5.7207,-5.7213,-5.7217,-5.722,0,0,0,0,0,0,0,-5.683,-5.6851,-5.7061,-5.6995,-5.6994,-5.6974,-5.6985,-5.7099,-5.7112,-5.7031,-5.7025,-5.704,-5.7134,-5.7172,-5.7183,-5.7361,-5.7207,-5.7216,-5.7222,-5.7226,-5.7682,-5.7688,0,0,0,0,0,0,-5.6824,-5.6844,-5.7058,-5.7065,-5.69,-5.6984,-5.6997,-5.7051,-5.7111,-5.7114,-5.7044,-5.7036,-5.7157,-5.7172,-5.7187,-5.7394,-5.7217,-5.7227,-5.7232,-5.7676,-5.7684,-5.769,0,0,0,0,0,0,-5.6818,-5.6843,-5.7053,-5.6953,-5.6978,-5.6995,-5.7057,-5.7057,-5.7094,-5.7121,-5.7123,-5.708,-5.7154,-5.7173,-5.7309,-5.7397,-5.7231,-5.724,-5.7669,-5.7678,-5.7687,-5.7809,0,0,0,0,0,0,-5.681,-5.6842,-5.6907,-5.6955,-5.6984,-5.7173,-5.7062,-5.7063,-5.7111,-5.7101,-5.7155,-5.7159,-5.7151,-5.7295,-5.7319,-5.7408,-5.7248,-5.7661,-5.7673,-5.7684,-5.7797,-5.7821,-5.7841,0,0,0,0,0,-5.6799,-5.6937,-5.6911,-5.6937,-5.7066,-5.7178,-5.7194,-5.7182,-5.7118,-5.7185,-5.7202,-5.7157,-5.7383,-5.7309,-5.7336,-5.7429,-5.7655,-5.767,-5.7683,-5.7787,-5.7816,-5.7841,0,0,0,0,0,0,-5.6899,-5.6943,-5.6914,-5.7071,-5.7122,-5.7164,-5.7247,-5.7213,-5.7283,-5.727,-5.7252,-5.7265,-5.7408,-5.7432,-5.7349,-5.76,-5.7509,-5.7529,-5.7579,-5.7607,-5.7629,-5.7621,-5.7256,0,0,0,0,0,-5.6939,-5.7026,-5.706,-5.7195,-5.7222,-5.723,-5.7279,-5.7265,-5.7316,-5.7337,-5.7364,-5.7417,-5.7499,-5.7554,-5.7632,-5.78,-5.7811,-5.7877,-5.7899,-5.7917,-5.7935,-5.8027,-5.8057,-5.7736,-5.7735,-5.7735,0,0,-5.7023,-5.7058,-5.7114,-5.7216,-5.7253,-5.7344,-5.7249,-5.7349,-5.7416,-5.7352,-5.7483,-5.7505,-5.7562,-5.7714,-5.7783,-5.7739,-5.8026,-5.7935,-5.7949,-5.7957,-5.8044,-5.8074,-5.8101,-5.7745,-5.7743,-5.7742,0,0,-5.7223,-5.7258,-5.7375,-5.7414,-5.7472,-5.7477,-5.7505,-5.7552,-5.7565,-5.7695,-5.7649,-5.7729,-5.7872,-5.7915,-5.7955,-5.8173,-5.8134,-5.8198,-5.8315,-5.8405,-5.843,-5.8452,-5.8531,-5.8559,-5.8216,-5.8216,-5.8216,0,-5.732,-5.7455,-5.7439,-5.7543,-5.759,-5.7536,-5.7655,-5.7694,-5.7774,-5.7808,-5.7757,-5.7936,-5.797,-5.8133,-5.8186,-5.822,-5.8252,-5.8192,-5.8428,-5.845,-5.8471,-5.8545,-5.8575,-5.8223,-5.8223,-5.8222,-5.8221,0,-5.7573,-5.7667,-5.7755,-5.7834,-5.789,-5.8001,-5.8002,-5.8062,-5.8043,-5.8054,-5.8188,-5.8227,-5.8312,-5.835,-5.8332,-5.8511,-5.8481,-5.843,-5.8338,-5.8509,-5.8579,-5.8607,-5.8234,-5.8232,-5.8229,-5.8227,0,0,-5.7839,-5.7908,-5.794,-5.7976,-5.8036,-5.8109,-5.8218,-5.8301,-5.8353,-5.841,-5.8501,-5.8624,-5.8576,-5.8623,-5.861,-5.8688,-5.8859,-5.8627,-5.8628,-5.867,-5.9059,-5.9099,-5.9132,-5.8834,-5.8839,-5.8843,-5.9055,0,-5.8043,-5.8232,-5.8221,-5.8399,-5.8487,-5.8437,-5.8532,-5.858,-5.8593,-5.8669,-5.8683,-5.8771,-5.8701,-5.8729,-5.8804,-5.8823,-5.8937,-5.8807,-5.892,-5.8924,-5.8908,-5.9168,-5.921,-5.9408,-5.9082,-5.9087,-5.909,0,-5.8306,-5.8372,-5.856,-5.8607,-5.8644,-5.8729,-5.8805,-5.8879,-5.8932,-5.8936,-5.8988,-5.8962,-5.9073,-5.8979,-5.9132,-5.9044,-5.9089,-5.9105,-5.9112,-5.9123,-5.9018,-5.9187,-5.9471,-5.9501,-5.9133,-5.9129,-5.9126,0,-5.8483,-5.8619,-5.8749,-5.8781,-5.8839,-5.8901,-5.8928,-5.8976,-5.9027,-5.9093,-5.9126,-5.9205,-5.9248,-5.931,-5.9307,-5.9238,-5.9463,-5.9368,-5.947,-5.947,-5.952,-5.9517,-5.9816,-5.9548,-5.9548,-5.9547,-5.9546,0,-5.8712,-5.8829,-5.8829,-5.8909,-5.9039,-5.9025,-5.9154,-5.9175,-5.9218,-5.9301,-5.9263,-5.9342,-5.9333,-5.9413,-5.9411,-5.9539,-5.9558,-5.9565,-5.9564,-5.957,-5.9569,-5.96,-5.9586,-5.9555,-5.9553,-5.9552,-5.955,0,-5.8932,-5.8937,-5.9075,-5.9119,-5.9133,-5.9227,-5.9265,-5.9341,-5.9351,-5.9457,-5.9481,-5.9497,-5.9589,-5.9592,-5.9698,-5.9697,-5.9853,-5.9836,-5.9835,-5.9832,-5.9935,-5.9925,-6.0264,-6.0308,-6.0011,-6.0014,-6.0017,0,-5.9078,-5.9167,-5.9221,-5.9274,-5.9305,-5.9391,-5.9443,-5.9433,-5.9489,-5.9557,-5.9625,-5.9714,-5.9784,-5.9935,-5.9956,-6.0037,-6.0022,-6.0135,-6.0034,-6.0037,-6.0025,-6.002,-6.0029,-6.0155,-6.0158,-6.0161,-6.0163,0,-5.9338,-5.9337,-5.9413,-5.9491,-5.9554,-5.9614,-5.967,-5.9716,-5.9713,-5.9778,-5.9871,-5.9926,-6.0035,-6.0124,-6.0203,-6.0231,-6.0198,-6.0195,-6.0223,-6.023,-6.0227,-6.0231,-5.989,-6.0187,-6.0185,-6.0183,-6.0182,-6.0181,-5.9527,-5.9604,-5.9654,-5.974,-5.9781,-5.9835,-5.9909,-5.9928,-6.0006,-6.0093,-6.0083,-6.0188,-6.0239,-6.0342,-6.0377,-6.046,-6.0421,-6.0461,-6.0472,-6.0482,-6.0493,-6.0213,-6.0474,-6.0473,-6.0473,-6.0472,-6.0472,0,-5.9785,-5.9815,-5.9895,-5.9975,-6.0043,-6.0005,-6.0065,-6.0125,-6.0218,-6.0269,-6.0339,-6.0447,-6.0534,-6.0562,-6.0646,-6.0707,-6.0693,-6.0729,-6.0725,-6.0732,-6.0523,-6.0491,-6.0739,-6.0739,-6.0738,-6.0738,-6.0738,-6.0738,-5.9928,-6.0057,-6.0061,-6.021,-6.0239,-6.0341,-6.0379,-6.0429,-6.0469,-6.0592,-6.0664,-6.0681,-6.0723,-6.081,-6.0888,-6.0894,-6.0927,-6.097,-6.097,-6.0774,-6.0747,-6.0721,-6.0691,-6.0977,-6.0977,-6.1172,-6.1174,-6.1175]},{"header":{"parameterUnit":"m.s-1","parameterCategory":1,"la1":30.2991,"la2":30.254,"lo1":-89.0895,"lo2":-89.0444,"dy":0.0017,"dx":0.0017,"nx":28,"ny":28,"refTime":"2023-11-01T03:00:00:Z","depth":0,"parameterNumber":3,"parameterNumberName":"V-component_of_WINDS"},"data":[0,0,0,0,0,0,0,0,0,0,0,0,0,0,0,0,0,0,0,0,0,0,0,0,0,0,0,0,0,0,0,0,0,0,0,0,0,0,0,0,0,0,0,0,0,0,0,0,0,0,0,0,0,0,0,0,0,0,-1.5474,-1.5473,0,-1.5404,-1.5403,-1.5402,-1.5362,-1.5362,-1.5362,-1.5361,-1.5289,-1.5287,-1.5285,0,0,0,0,0,0,0,0,0,0,0,0,0,-1.557,-1.5569,-1.5474,-1.5473,-1.5472,-1.5404,-1.5403,-1.5402,-1.5362,-1.5362,-1.5361,-1.5361,-1.529,-1.5287,-1.5285,0,0,0,0,0,0,0,0,0,0,0,0,0,-1.5517,-1.5568,-1.5474,-1.5444,-1.544,-1.5404,-1.5403,-1.5402,-1.5362,-1.5362,-1.5361,-1.5361,-1.529,-1.5288,-1.5285,-1.5273,0,0,-1.5277,-1.5276,0,0,0,0,0,0,0,0,-1.552,-1.5514,-1.5449,-1.5446,-1.5442,-1.5391,-1.541,-1.5358,-1.5362,-1.5392,-1.5361,-1.5361,-1.5323,-1.5318,-1.5305,-1.5269,-1.5266,-1.5277,-1.5275,-1.5274,-1.5273,0,0,0,0,0,0,0,-1.5524,-1.5516,-1.5446,-1.5448,-1.5444,-1.5433,-1.5425,-1.54,-1.5359,-1.5389,-1.5386,-1.5378,-1.5321,-1.5308,-1.5303,-1.5265,-1.5277,-1.5274,-1.5273,-1.5272,-1.5213,-1.5213,0,0,0,0,0,0,-1.5533,-1.552,-1.5448,-1.5444,-1.5481,-1.5431,-1.5423,-1.5408,-1.536,-1.5352,-1.5379,-1.5377,-1.5312,-1.5306,-1.53,-1.5281,-1.5274,-1.5271,-1.527,-1.5213,-1.5213,-1.5213,0,0,0,0,0,0,-1.5535,-1.5527,-1.5451,-1.5481,-1.547,-1.543,-1.5413,-1.5406,-1.5393,-1.5352,-1.5344,-1.5373,-1.5312,-1.5304,-1.5279,-1.5278,-1.527,-1.5268,-1.5213,-1.5213,-1.5213,-1.5244,0,0,0,0,0,0,-1.5538,-1.5528,-1.5523,-1.5481,-1.5469,-1.5432,-1.5413,-1.5405,-1.5389,-1.5385,-1.5344,-1.5337,-1.5311,-1.5284,-1.5277,-1.5274,-1.5266,-1.5213,-1.5213,-1.5213,-1.5243,-1.5245,-1.5247,0,0,0,0,0,-1.5541,-1.5535,-1.5523,-1.5515,-1.5463,-1.5432,-1.5425,-1.5396,-1.5389,-1.5383,-1.5356,-1.5338,-1.528,-1.5281,-1.5273,-1.527,-1.5213,-1.5213,-1.5213,-1.5242,-1.5245,-1.5247,0,0,0,0,0,0,-1.5579,-1.5529,-1.5516,-1.5496,-1.5468,-1.5425,-1.5418,-1.54,-1.5374,-1.5372,-1.5337,-1.5328,-1.5306,-1.5286,-1.5289,-1.5254,-1.5244,-1.5243,-1.5269,-1.5271,-1.5273,-1.5278,-1.5263,0,0,0,0,0,-1.5584,-1.5564,-1.5522,-1.5508,-1.5495,-1.5459,-1.5445,-1.5424,-1.5394,-1.5383,-1.5354,-1.5326,-1.53,-1.5285,-1.5259,-1.524,-1.5229,-1.5233,-1.5235,-1.5237,-1.5236,-1.5222,-1.5223,-1.5214,-1.5214,-1.5214,0,0,-1.5596,-1.5567,-1.5556,-1.5515,-1.5491,-1.547,-1.545,-1.5429,-1.5412,-1.5379,-1.5354,-1.5332,-1.5297,-1.5275,-1.5263,-1.5257,-1.5236,-1.5237,-1.5239,-1.5237,-1.5223,-1.5224,-1.5224,-1.5214,-1.5214,-1.5214,0,0,-1.5607,-1.5583,-1.5568,-1.5545,-1.5509,-1.5485,-1.5481,-1.5441,-1.5424,-1.5398,-1.5373,-1.5352,-1.531,-1.5286,-1.5269,-1.5268,-1.5249,-1.5261,-1.5271,-1.5258,-1.5259,-1.5259,-1.5257,-1.5257,-1.526,-1.526,-1.526,0,-1.5626,-1.5594,-1.5563,-1.5543,-1.5524,-1.5493,-1.5477,-1.5456,-1.5414,-1.5402,-1.5395,-1.534,-1.5315,-1.5285,-1.5285,-1.5272,-1.5266,-1.5265,-1.5261,-1.5261,-1.5261,-1.5259,-1.5259,-1.5261,-1.5261,-1.5261,-1.5261,0,-1.5618,-1.5596,-1.5588,-1.5548,-1.5529,-1.5511,-1.5476,-1.546,-1.5441,-1.5417,-1.539,-1.5358,-1.5325,-1.5316,-1.5298,-1.5283,-1.528,-1.5268,-1.5257,-1.5264,-1.5262,-1.5261,-1.5263,-1.5263,-1.5262,-1.5262,0,0,-1.5651,-1.5593,-1.559,-1.5571,-1.5528,-1.551,-1.549,-1.5457,-1.5444,-1.5415,-1.5396,-1.5361,-1.5348,-1.5328,-1.5306,-1.5295,-1.5294,-1.5284,-1.5282,-1.5286,-1.5274,-1.5283,-1.5283,-1.5282,-1.5282,-1.5282,-1.5277,0,-1.5654,-1.5617,-1.5588,-1.5561,-1.5539,-1.5508,-1.549,-1.5462,-1.5438,-1.5416,-1.539,-1.5364,-1.5351,-1.5338,-1.5325,-1.5297,-1.5291,-1.5297,-1.5263,-1.5262,-1.5272,-1.5282,-1.5292,-1.5289,-1.5276,-1.5276,-1.5275,0,-1.5654,-1.5626,-1.5597,-1.5555,-1.5545,-1.5529,-1.5496,-1.5475,-1.5441,-1.5425,-1.5402,-1.5379,-1.5355,-1.5346,-1.5311,-1.5316,-1.53,-1.5284,-1.5283,-1.5278,-1.5269,-1.5276,-1.5287,-1.5287,-1.5274,-1.5274,-1.5274,0,-1.5679,-1.5634,-1.561,-1.5595,-1.5546,-1.5535,-1.5514,-1.548,-1.5462,-1.5433,-1.542,-1.5389,-1.5371,-1.5347,-1.5315,-1.5312,-1.5283,-1.5272,-1.5268,-1.5269,-1.5263,-1.5264,-1.5271,-1.5254,-1.5254,-1.5254,-1.5254,0,-1.5685,-1.5668,-1.5621,-1.5606,-1.5586,-1.5551,-1.5532,-1.5508,-1.5478,-1.5457,-1.5429,-1.541,-1.537,-1.5346,-1.5322,-1.5296,-1.5288,-1.5273,-1.5267,-1.5276,-1.5277,-1.5264,-1.5263,-1.5254,-1.5254,-1.5254,-1.5254,0,-1.5709,-1.5677,-1.5649,-1.5605,-1.5593,-1.558,-1.5541,-1.5525,-1.55,-1.5474,-1.5466,-1.5426,-1.5395,-1.5362,-1.5321,-1.5304,-1.5279,-1.5271,-1.5291,-1.5287,-1.5284,-1.5284,-1.5282,-1.528,-1.5266,-1.5267,-1.5267,0,-1.5715,-1.5701,-1.5655,-1.5639,-1.5619,-1.5594,-1.5575,-1.554,-1.5521,-1.5481,-1.5469,-1.5437,-1.541,-1.5363,-1.5329,-1.5297,-1.5287,-1.5288,-1.5282,-1.529,-1.5285,-1.5286,-1.5284,-1.529,-1.529,-1.5291,-1.5291,0,-1.5728,-1.5713,-1.5686,-1.5654,-1.5632,-1.5605,-1.5576,-1.5565,-1.5524,-1.5504,-1.5473,-1.5452,-1.5409,-1.5377,-1.5341,-1.5318,-1.5297,-1.5293,-1.529,-1.5299,-1.531,-1.5303,-1.5295,-1.5293,-1.5293,-1.5293,-1.5293,-1.5293,-1.5743,-1.5728,-1.5693,-1.5664,-1.5639,-1.5613,-1.5595,-1.5567,-1.5541,-1.5503,-1.5484,-1.5453,-1.5418,-1.5367,-1.5344,-1.5319,-1.5312,-1.5308,-1.5307,-1.5307,-1.5308,-1.5315,-1.5312,-1.5312,-1.5312,-1.5312,-1.5312,0,-1.5753,-1.5729,-1.5702,-1.5663,-1.564,-1.5623,-1.559,-1.5572,-1.5545,-1.5514,-1.5487,-1.545,-1.5419,-1.5382,-1.5348,-1.5334,-1.5324,-1.5326,-1.5327,-1.5322,-1.5317,-1.5322,-1.5335,-1.5335,-1.5335,-1.5335,-1.5335,-1.5335,-1.5756,-1.573,-1.571,-1.5671,-1.5646,-1.5615,-1.5598,-1.5573,-1.5548,-1.5508,-1.5482,-1.5458,-1.5425,-1.5388,-1.5357,-1.5347,-1.5336,-1.5341,-1.5328,-1.5324,-1.5322,-1.532,-1.5325,-1.5339,-1.5339,-1.5335,-1.5335,-1.5335]}]]